Tracking 22881 objects as of 19-Apr-2021
HD Live streaming from Space Station
objects crossing your sky now

SL-24 R/B

Track SL-24 R/B now!
10-day predictions


NORAD ID: 40541
Int'l Code: 2015-014C
Perigee: 530.4 km
Apogee: 1,445.0 km
Inclination: 97.3 °
Period: 104.7 minutes
Semi major axis: 7358 km
RCS: Unknown
Launch date: March 25, 2015
Source: Commonwealth of Independent States (former USSR) (CIS)
Launch site: Orenburg, Russia (OREN)

Note: This is a ROCKET BODY
aabbcc
Your satellite tracking list
Your tracking list is empty




NASA's NSSDC Master Catalog

Two Line Element Set (TLE):
1 40541U 15014C   21109.58595277  .00000069  00000-0  24670-4 0  9994
2 40541  97.3454 312.3141 0621479 118.9089 247.5863 13.75315959304558
Source of the keplerian elements: AFSPC